Location: Newark
(25.4800°N, 85.7200°E)
Time: 15:43:24
(UTC+00:00)

Explorer 11/Cluster Stage 4 - Pass Details

Date: 19 August 2019
Orbit: 467 x 1260 km, 28.8° (Epoch: 17 September)

Event Time Altitude Azimuth Distance (km) Brightness Sun altitude
Rises 03:21:02 0° 210° (SSW) 4,070 10.1 45.9°
Reaches altitude 10° 03:24:33 10° 196° (SSW) 3,175 9.7 46.7°
Maximum altitude 03:30:33 23° 148° (SSE) 2,400 9.8 48.1°
Drops below altitude 10° 03:36:34 10° 100° (E) 3,196 10.6 49.4°
Sets 03:40:05 0° 87° (E) 4,102 10.9 50.2°
